Terminal Aerodrome Forecast
Issued by NWS Anchorage, AK

Home | Current Version | Previous Version | Text Only | Print | Product List | Glossary On
Versions: 1 2 3 4 5 6 7 8 9 10 11 12 13 14 15 16 17 18 19
000
FTAK31 PANC 252341
TAFANC
TAF
PANC 252341Z 2600/2706 VRB03KT P6SM SCT050 SCT120
     FM261500 VRB03KT P6SM VCFG FEW001 SCT060 SCT120
     FM262000 04005KT P6SM FEW050 SCT200=

USA.gov is the U.S. government's official web portal to all federal, state and local government web resources and services.